Parkersburg, WV

6:10 PM EDT on April 26, 2018 (GMT -0400)
Wood County Wilson

Weather History for KPKB - August, 2013

Change the Weather History Date:

Saturday, August 17, 2013

  Actual Average Record
Temperature  
Mean Temperature 68 °F 74 °F  
Max Temperature 79 °F 84 °F 101 °F (1988)
Min Temperature 57 °F 63 °F 50 °F (1979)
Degree Days  
Heating Degree Days 0 0  
Month to date heating degree days 5 0  
Since 1 June heating degree days 11 20  
Since 1 July heating degree days 5 1  
Cooling Degree Days 3 9  
Month to date cooling degree days 99 153  
Year to date cooling degree days 705 720  
Since 1 June cooling degree days 579 636  
Growing Degree Days 18 (Base 50)    
Moisture  
Dew Point 58 °F    
Average Humidity 73    
Maximum Humidity 100    
Minimum Humidity 45    
Precipitation  
Precipitation 0.00 in 0.12 in 1.87 in (1997)
Month to date precipitation 3.47 2.04  
Year to date precipitation 29.70 27.22  
Sea Level Pressure  
Sea Level Pressure 30.21 in    
Wind  
Wind Speed 2 mph (East)    
Max Wind Speed 10 mph    
Max Gust Speed 13 mph    
Visibility 6 miles    
Events Fog    
T = Trace of Precipitation, MM = Missing Value Source: NWS Daily Summary

Daily Weather History Graph

Daily Weather History Graph

Search for Another Location

Airport or City:

Astronomy

Aug. 17, 2013 Rise Set
Actual Time 6:40 AM EDT 8:18 PM EDT
Civil Twilight 6:12 AM EDT 8:46 PM EDT
Nautical Twilight 5:37 AM EDT 9:20 PM EDT
Astronomical Twilight 5:01 AM EDT 9:57 PM EDT
Moon 5:31 PM EDT (8/17) 2:43 AM EDT (8/17)
Length of Visible Light 14h 34m
Length of Day
13h 37m
Waxing Gibbous, 84% of the Moon is Illuminated
Aug 17
Waxing Gibbous
Aug 20
Full
Aug 28
Last Quarter
Sep 5
New
Sep 12
First Quarter

Hourly Weather History & Observations

Time (EDT) Temp. Dew Point Humidity Pressure Visibility Wind Dir Wind Speed Gust Speed Precip Events Conditions
12:53 AM 60.1 °F 57.9 °F 93% 30.18 in 7.0 mi Calm Calm - N/A   Clear
1:53 AM 59.0 °F 57.0 °F 93% 30.18 in 6.0 mi Calm Calm - N/A   Clear
2:53 AM 59.0 °F 57.0 °F 93% 30.19 in 4.0 mi Calm Calm - 0.01 in   Clear
3:53 AM 57.0 °F 55.9 °F 96% 30.19 in 4.0 mi Calm Calm - N/A   Clear
4:21 AM 57.2 °F 55.4 °F 94% 30.21 in 6.0 mi Calm Calm - N/A   Scattered Clouds
4:53 AM 57.0 °F 55.0 °F 93% 30.19 in 6.0 mi Calm Calm - N/A   Scattered Clouds
5:15 AM 57.2 °F 55.4 °F 94% 30.21 in 2.5 mi Calm Calm - N/A   Mostly Cloudy
5:17 AM 57.2 °F 55.4 °F 94% 30.21 in 0.8 mi Calm Calm - N/A   Mostly Cloudy
5:26 AM 57.2 °F 55.4 °F 94% 30.22 in 0.2 mi Calm Calm - N/A Fog Fog
5:53 AM 57.9 °F 57.9 °F 100% 30.21 in 0.2 mi Calm Calm - N/A Fog Fog
6:40 AM 57.2 °F 57.2 °F 100% 30.24 in 0.8 mi Calm Calm - N/A   Mist
6:53 AM 57.0 °F 55.9 °F 96% 30.23 in 0.2 mi Calm Calm - N/A Fog Fog
7:02 AM 57.2 °F 57.2 °F 100% 30.24 in 1.2 mi Calm Calm - N/A   Overcast
7:13 AM 57.2 °F 57.2 °F 100% 30.25 in 3.0 mi Calm Calm - N/A   Mostly Cloudy
7:27 AM 59.0 °F 57.2 °F 94% 30.24 in 1.0 mi East 3.5 mph - N/A   Scattered Clouds
7:41 AM 59.0 °F 57.2 °F 94% 30.24 in 3.0 mi Calm Calm - N/A   Clear
7:53 AM 59.0 °F 57.9 °F 96% 30.24 in 3.0 mi Calm Calm - N/A   Clear
8:53 AM 63.0 °F 60.1 °F 90% 30.23 in 9.0 mi East 3.5 mph - N/A   Clear
9:53 AM 68.0 °F 60.1 °F 76% 30.23 in 10.0 mi East 5.8 mph - N/A   Clear
10:53 AM 72.0 °F 57.9 °F 61% 30.23 in 10.0 mi ENE 4.6 mph - N/A   Clear
11:53 AM 73.9 °F 59.0 °F 59% 30.23 in 10.0 mi ENE 4.6 mph - N/A   Clear
12:53 PM 77.0 °F 59.0 °F 54% 30.22 in 10.0 mi Variable 3.5 mph - N/A   Clear
1:53 PM 79.0 °F 57.0 °F 47% 30.21 in 10.0 mi Calm Calm - N/A   Clear
2:53 PM 78.1 °F 55.9 °F 46% 30.20 in 10.0 mi East 9.2 mph - N/A   Clear
3:53 PM 77.0 °F 55.9 °F 48% 30.19 in 10.0 mi East 6.9 mph - N/A   Clear
4:53 PM 75.0 °F 57.9 °F 55% 30.20 in 10.0 mi East 5.8 mph - N/A   Clear
5:53 PM 73.9 °F 59.0 °F 59% 30.21 in 10.0 mi East 4.6 mph - N/A   Clear
6:53 PM 73.0 °F 60.1 °F 64% 30.20 in 10.0 mi East 3.5 mph - N/A   Clear
7:53 PM 71.1 °F 60.1 °F 68% 30.19 in 10.0 mi Calm Calm - N/A   Clear
8:53 PM 66.9 °F 63.0 °F 87% 30.19 in 10.0 mi Calm Calm - N/A   Clear
9:53 PM 66.0 °F 62.1 °F 87% 30.20 in 10.0 mi Calm Calm - N/A   Partly Cloudy
10:53 PM 64.0 °F 62.1 °F 93% 30.19 in 10.0 mi Calm Calm - N/A   Scattered Clouds
11:53 PM 64.0 °F 62.1 °F 93% 30.19 in 10.0 mi Calm Calm - N/A   Overcast